[[{"header":{"parameterUnit":"m.s-1","parameterCategory":1,"la1":30.2991,"la2":30.254,"lo1":-89.0895,"lo2":-89.0444,"dy":0.0017,"dx":0.0017,"nx":28,"ny":28,"refTime":"2025-01-08T09:00:00:Z","depth":0,"parameterNumber":2,"parameterNumberName":"U-component_of_WINDS"},"data":[0,0,0,0,0,0,0,0,0,0,0,0,0,0,0,0,0,0,0,0,0,0,0,0,0,0,0,0,0,0,0,0,0,0,0,0,0,0,0,0,0,0,0,0,0,0,0,0,0,0,0,0,0,0,0,0,0,0,1.1164,1.1164,0,1.1158,1.1158,1.1158,1.1153,1.1153,1.1153,1.1153,1.1146,1.1146,1.1146,0,0,0,0,0,0,0,0,0,0,0,0,0,1.1171,1.1171,1.1164,1.1164,1.1164,1.1158,1.1158,1.1158,1.1153,1.1153,1.1153,1.1153,1.1146,1.1146,1.1146,0,0,0,0,0,0,0,0,0,0,0,0,0,1.1167,1.117,1.1164,1.1161,1.116,1.1158,1.1158,1.1158,1.1153,1.1153,1.1153,1.1153,1.1146,1.1146,1.1146,1.1146,0,0,1.1145,1.1145,0,0,0,0,0,0,0,0,1.1167,1.1166,1.1161,1.1161,1.1161,1.1156,1.1158,1.1154,1.1153,1.1156,1.1153,1.1153,1.1149,1.1149,1.1148,1.1146,1.1145,1.1145,1.1145,1.1145,1.1145,0,0,0,0,0,0,0,1.1167,1.1167,1.1162,1.1161,1.1161,1.116,1.1159,1.1157,1.1153,1.1156,1.1155,1.1155,1.1149,1.1148,1.1148,1.1145,1.1145,1.1145,1.1145,1.1145,1.1143,1.1144,0,0,0,0,0,0,1.1168,1.1167,1.1162,1.1161,1.1164,1.116,1.1159,1.1158,1.1153,1.1152,1.1155,1.1155,1.1149,1.1148,1.1148,1.1148,1.1145,1.1145,1.1145,1.1143,1.1144,1.1144,0,0,0,0,0,0,1.1168,1.1168,1.1162,1.1164,1.1163,1.1159,1.1158,1.1158,1.1157,1.1153,1.1152,1.1155,1.1149,1.1148,1.1147,1.1147,1.1145,1.1144,1.1143,1.1143,1.1144,1.1148,0,0,0,0,0,0,1.1168,1.1168,1.1168,1.1164,1.1163,1.1161,1.1158,1.1158,1.1156,1.1156,1.1152,1.1151,1.1148,1.1147,1.1146,1.1147,1.1144,1.1143,1.1143,1.1144,1.1148,1.1148,1.1149,0,0,0,0,0,1.1169,1.1169,1.1168,1.1167,1.1163,1.1161,1.1161,1.1158,1.1157,1.1156,1.1154,1.1151,1.1148,1.1147,1.1146,1.1147,1.1143,1.1143,1.1143,1.1148,1.1148,1.1149,0,0,0,0,0,0,1.1171,1.1168,1.1167,1.1166,1.1164,1.116,1.116,1.1158,1.1157,1.1156,1.1152,1.1151,1.1151,1.1149,1.1148,1.1147,1.1145,1.1145,1.1148,1.1149,1.115,1.115,1.1144,0,0,0,0,0,1.1172,1.1171,1.1168,1.1168,1.1167,1.1164,1.1163,1.1161,1.1159,1.1158,1.1155,1.1153,1.1151,1.115,1.1148,1.1148,1.1147,1.1148,1.1149,1.1149,1.1149,1.1149,1.115,1.1144,1.1144,1.1144,0,0,1.1173,1.1171,1.1171,1.1168,1.1166,1.1166,1.1163,1.1162,1.1161,1.1157,1.1156,1.1154,1.1152,1.1151,1.1151,1.1149,1.1151,1.1149,1.115,1.1149,1.1149,1.115,1.115,1.1144,1.1144,1.1144,0,0,1.1175,1.1173,1.1173,1.1171,1.1169,1.1167,1.1168,1.1165,1.1163,1.1162,1.116,1.1159,1.1156,1.1154,1.1153,1.1156,1.1153,1.1155,1.1158,1.1158,1.1158,1.1159,1.116,1.116,1.1155,1.1155,1.1155,0,1.1176,1.1175,1.1173,1.1172,1.1171,1.1169,1.1168,1.1167,1.1164,1.1164,1.1163,1.116,1.1158,1.1157,1.1158,1.1157,1.1157,1.1155,1.1158,1.1159,1.1159,1.116,1.116,1.1156,1.1156,1.1156,1.1156,0,1.1177,1.1176,1.1176,1.1174,1.1173,1.1173,1.1171,1.117,1.1169,1.1167,1.1167,1.1164,1.1162,1.1162,1.116,1.1161,1.1161,1.1159,1.1157,1.116,1.1161,1.1161,1.1156,1.1156,1.1156,1.1156,0,0,1.1179,1.1177,1.1177,1.1176,1.1174,1.1173,1.1173,1.1172,1.1172,1.117,1.117,1.1168,1.1167,1.1166,1.1164,1.1165,1.1167,1.1163,1.1163,1.1164,1.1168,1.1169,1.117,1.1166,1.1166,1.1166,1.1169,0,1.118,1.1179,1.1178,1.1178,1.1177,1.1175,1.1175,1.1174,1.1173,1.1172,1.1171,1.117,1.1169,1.1168,1.1168,1.1167,1.1168,1.1167,1.1165,1.1165,1.1166,1.117,1.1171,1.1173,1.1169,1.1169,1.1169,0,1.118,1.118,1.118,1.1179,1.1178,1.1178,1.1177,1.1177,1.1176,1.1175,1.1175,1.1173,1.1173,1.1171,1.1171,1.117,1.117,1.117,1.117,1.1169,1.1167,1.1169,1.1174,1.1174,1.1169,1.1169,1.1169,0,1.1182,1.1181,1.1181,1.118,1.1179,1.1179,1.1179,1.1178,1.1177,1.1177,1.1177,1.1176,1.1175,1.1175,1.1174,1.1173,1.1174,1.1172,1.1173,1.1173,1.1173,1.1172,1.1177,1.1173,1.1173,1.1173,1.1173,0,1.1182,1.1182,1.1182,1.1181,1.1182,1.1181,1.1181,1.118,1.118,1.1179,1.1178,1.1178,1.1176,1.1176,1.1175,1.1175,1.1175,1.1175,1.1174,1.1174,1.1174,1.1173,1.1173,1.1173,1.1173,1.1173,1.1173,0,1.1183,1.1183,1.1183,1.1182,1.1182,1.1182,1.1182,1.1182,1.1181,1.1181,1.1181,1.118,1.118,1.1179,1.1178,1.1177,1.1178,1.1178,1.1178,1.1178,1.1179,1.1179,1.1183,1.1183,1.118,1.118,1.118,0,1.1184,1.1184,1.1184,1.1184,1.1183,1.1183,1.1183,1.1183,1.1183,1.1182,1.1182,1.1182,1.1182,1.1182,1.1181,1.1181,1.118,1.1182,1.118,1.1181,1.118,1.118,1.118,1.1182,1.1182,1.1182,1.1182,0,1.1184,1.1184,1.1184,1.1185,1.1185,1.1185,1.1185,1.1185,1.1184,1.1184,1.1184,1.1184,1.1184,1.1184,1.1184,1.1184,1.1183,1.1183,1.1183,1.1183,1.1183,1.1183,1.1179,1.1182,1.1182,1.1182,1.1182,1.1182,1.1185,1.1185,1.1185,1.1186,1.1186,1.1186,1.1186,1.1186,1.1186,1.1186,1.1186,1.1186,1.1186,1.1186,1.1186,1.1186,1.1186,1.1186,1.1186,1.1186,1.1186,1.1184,1.1186,1.1186,1.1186,1.1186,1.1186,0,1.1185,1.1186,1.1186,1.1186,1.1187,1.1187,1.1187,1.1187,1.1187,1.1188,1.1188,1.1188,1.1189,1.1189,1.1189,1.1189,1.1189,1.1189,1.1189,1.1189,1.1187,1.1186,1.119,1.119,1.119,1.119,1.119,1.119,1.1186,1.1186,1.1186,1.1187,1.1187,1.1188,1.1188,1.1189,1.1189,1.119,1.119,1.119,1.119,1.1191,1.1191,1.1191,1.1191,1.1192,1.1192,1.1189,1.1189,1.1189,1.1188,1.1192,1.1192,1.1194,1.1194,1.1194]},{"header":{"parameterUnit":"m.s-1","parameterCategory":1,"la1":30.2991,"la2":30.254,"lo1":-89.0895,"lo2":-89.0444,"dy":0.0017,"dx":0.0017,"nx":28,"ny":28,"refTime":"2025-01-08T09:00:00:Z","depth":0,"parameterNumber":3,"parameterNumberName":"V-component_of_WINDS"},"data":[0,0,0,0,0,0,0,0,0,0,0,0,0,0,0,0,0,0,0,0,0,0,0,0,0,0,0,0,0,0,0,0,0,0,0,0,0,0,0,0,0,0,0,0,0,0,0,0,0,0,0,0,0,0,0,0,0,0,-5.7328,-5.733,0,-5.7509,-5.7511,-5.7513,-5.7463,-5.7459,-5.7456,-5.7452,-5.7633,-5.7641,-5.7649,0,0,0,0,0,0,0,0,0,0,0,0,0,-5.6935,-5.6942,-5.7328,-5.733,-5.7333,-5.7509,-5.7511,-5.7514,-5.7464,-5.7459,-5.7455,-5.7451,-5.763,-5.764,-5.765,0,0,0,0,0,0,0,0,0,0,0,0,0,-5.711,-5.6945,-5.7328,-5.7329,-5.7331,-5.7508,-5.7511,-5.7514,-5.7465,-5.7459,-5.7454,-5.7449,-5.7627,-5.7639,-5.7651,-5.7837,0,0,-5.7689,-5.7694,0,0,0,0,0,0,0,0,-5.71,-5.7124,-5.7327,-5.7329,-5.7332,-5.7458,-5.7439,-5.7622,-5.7466,-5.7414,-5.7452,-5.7446,-5.7579,-5.7595,-5.7641,-5.7845,-5.7853,-5.769,-5.7697,-5.7703,-5.7706,0,0,0,0,0,0,0,-5.7088,-5.7116,-5.74,-5.733,-5.7333,-5.7319,-5.7338,-5.7473,-5.7525,-5.7418,-5.7415,-5.7437,-5.7579,-5.7629,-5.7645,-5.7856,-5.769,-5.7701,-5.7708,-5.7713,-5.8221,-5.8227,0,0,0,0,0,0,-5.7074,-5.7106,-5.7394,-5.7405,-5.72,-5.7331,-5.7352,-5.7423,-5.7523,-5.7533,-5.7442,-5.7434,-5.7611,-5.763,-5.7651,-5.7875,-5.7703,-5.7714,-5.7721,-5.8215,-5.8222,-5.8229,0,0,0,0,0,0,-5.7066,-5.71,-5.7387,-5.7255,-5.729,-5.7343,-5.7424,-5.7429,-5.7479,-5.7541,-5.7549,-5.7483,-5.7607,-5.7633,-5.7791,-5.788,-5.772,-5.7731,-5.8208,-5.8217,-5.8226,-5.8324,0,0,0,0,0,0,-5.7055,-5.7098,-5.717,-5.7257,-5.7298,-5.7526,-5.7429,-5.7437,-5.7501,-5.7493,-5.7582,-5.7592,-5.7605,-5.7773,-5.7803,-5.7894,-5.7741,-5.82,-5.8212,-5.8223,-5.8313,-5.8335,-5.8354,0,0,0,0,0,-5.7041,-5.719,-5.7174,-5.7209,-5.7389,-5.7531,-5.7554,-5.7567,-5.7508,-5.7581,-5.762,-5.7589,-5.7865,-5.779,-5.7823,-5.7919,-5.8194,-5.8209,-5.8222,-5.8304,-5.8331,-5.8354,0,0,0,0,0,0,-5.7111,-5.7201,-5.7185,-5.7366,-5.7442,-5.7522,-5.7614,-5.7596,-5.7688,-5.7677,-5.7687,-5.7708,-5.7869,-5.791,-5.7824,-5.8104,-5.8021,-5.8042,-5.8072,-5.8098,-5.8118,-5.8105,-5.7751,0,0,0,0,0,-5.7147,-5.7257,-5.7329,-5.7482,-5.7521,-5.7561,-5.7624,-5.7627,-5.7705,-5.7736,-5.7787,-5.7862,-5.7966,-5.8034,-5.8133,-5.8318,-5.8336,-5.8401,-5.8421,-5.8438,-5.8456,-5.8556,-5.8585,-5.8274,-5.8274,-5.8274,0,0,-5.7224,-5.7287,-5.7355,-5.7498,-5.7557,-5.7668,-5.7588,-5.771,-5.7792,-5.7754,-5.7907,-5.7947,-5.8031,-5.8204,-5.8282,-5.8242,-5.8546,-5.8455,-5.8468,-5.8478,-5.8573,-5.8603,-5.8629,-5.8283,-5.8282,-5.828,0,0,-5.7421,-5.748,-5.7614,-5.7674,-5.7765,-5.779,-5.7822,-5.7907,-5.7932,-5.8086,-5.8059,-5.8156,-5.8335,-5.8396,-5.8451,-5.867,-5.8644,-5.8701,-5.881,-5.8907,-5.8932,-5.8953,-5.9031,-5.9059,-5.8719,-5.8719,-5.872,0,-5.7504,-5.7673,-5.7684,-5.7809,-5.7871,-5.7843,-5.7978,-5.8036,-5.8153,-5.8197,-5.8151,-5.8374,-5.8429,-5.8615,-5.8669,-5.8714,-5.875,-5.8691,-5.8927,-5.8949,-5.897,-5.9044,-5.9073,-5.8726,-5.8725,-5.8724,-5.8724,0,-5.777,-5.7887,-5.7984,-5.81,-5.8174,-5.8303,-5.8333,-5.8406,-5.8402,-5.8432,-5.8588,-5.8653,-5.8765,-5.8809,-5.8806,-5.8994,-5.8967,-5.8924,-5.8841,-5.9006,-5.9076,-5.9104,-5.8735,-5.8733,-5.8731,-5.8729,0,0,-5.8017,-5.8137,-5.8173,-5.8225,-5.8322,-5.8412,-5.8538,-5.8649,-5.8711,-5.8792,-5.8898,-5.9049,-5.901,-5.9072,-5.9076,-5.9162,-5.9331,-5.9109,-5.9111,-5.9147,-5.9541,-5.9573,-5.9606,-5.9314,-5.9319,-5.9324,-5.9534,0,-5.8222,-5.8447,-5.8461,-5.8664,-5.8771,-5.8746,-5.8856,-5.8926,-5.8957,-5.9052,-5.9085,-5.9193,-5.9133,-5.917,-5.9254,-5.9293,-5.941,-5.9277,-5.9411,-5.9416,-5.9391,-5.9642,-5.9676,-5.9871,-5.9561,-5.9566,-5.9569,0,-5.8491,-5.8583,-5.8797,-5.8878,-5.8924,-5.9023,-5.9125,-5.9216,-5.9295,-5.9311,-5.938,-5.9372,-5.95,-5.9413,-5.9588,-5.9498,-5.9553,-5.958,-5.9588,-5.9601,-5.9503,-5.9662,-5.9934,-5.9963,-5.9612,-5.9609,-5.9606,0,-5.865,-5.8826,-5.8977,-5.9022,-5.9121,-5.9191,-5.9235,-5.9308,-5.9373,-5.9462,-5.9504,-5.9605,-5.9661,-5.9738,-5.9757,-5.9692,-5.9933,-5.9847,-5.9949,-5.9949,-6.0001,-5.9998,-6.0286,-6.0037,-6.0036,-6.0036,-6.0035,0,-5.8877,-5.9009,-5.9049,-5.9142,-5.9288,-5.9302,-5.9446,-5.9485,-5.9551,-5.965,-5.9633,-5.9725,-5.9744,-5.984,-5.9855,-5.9998,-6.0023,-6.0039,-6.0042,-6.0041,-6.0039,-6.0078,-6.0064,-6.0043,-6.0042,-6.004,-6.0039,0,-5.9079,-5.9111,-5.9274,-5.9354,-5.9377,-5.9482,-5.955,-5.9638,-5.9667,-5.9792,-5.9822,-5.9867,-5.9979,-6.0005,-6.0138,-6.0148,-6.0317,-6.0306,-6.0291,-6.029,-6.0391,-6.0381,-6.0714,-6.0758,-6.048,-6.0483,-6.0485,0,-5.9222,-5.9324,-5.9415,-5.9481,-5.9529,-5.9634,-5.9701,-5.9718,-5.9787,-5.9885,-5.9961,-6.0071,-6.0161,-6.034,-6.0384,-6.0485,-6.0476,-6.0586,-6.0491,-6.0487,-6.0478,-6.0472,-6.0482,-6.0604,-6.0607,-6.061,-6.0612,0,-5.9474,-5.9484,-5.9582,-5.9685,-5.9766,-5.9847,-5.9925,-5.9979,-6.0006,-6.0085,-6.0201,-6.027,-6.0406,-6.0516,-6.0617,-6.066,-6.0641,-6.0641,-6.067,-6.0671,-6.0658,-6.0666,-6.034,-6.0633,-6.0631,-6.063,-6.0628,-6.0628,-5.9651,-5.9739,-5.9817,-5.9926,-5.9987,-6.006,-6.0147,-6.0187,-6.0284,-6.0397,-6.04,-6.0526,-6.06,-6.0735,-6.0784,-6.0881,-6.0847,-6.0889,-6.09,-6.091,-6.0919,-6.0642,-6.09,-6.0899,-6.0899,-6.0898,-6.0898,0,-5.9901,-5.995,-6.005,-6.016,-6.0245,-6.022,-6.0305,-6.0378,-6.0489,-6.0561,-6.0649,-6.0781,-6.0887,-6.0938,-6.1043,-6.111,-6.1104,-6.1137,-6.1132,-6.1142,-6.0944,-6.0908,-6.1141,-6.1141,-6.1141,-6.1141,-6.1141,-6.114,-6.0041,-6.0189,-6.0209,-6.0387,-6.0434,-6.0558,-6.0609,-6.0675,-6.0733,-6.0882,-6.097,-6.1003,-6.1067,-6.1175,-6.1271,-6.1283,-6.1322,-6.136,-6.1368,-6.1181,-6.1156,-6.1133,-6.11,-6.1368,-6.1369,-6.1558,-6.156,-6.1561]}]]